Location: Unspecified
(0.0000°N, 0.0000°E)
Time: 21:12:26
(UTC+00:00)

QIANFAN-31 - Visible Passes

Search period start: 06 March 2026 00:00
Search period end: 16 March 2026 00:00
Orbit: 1037 x 1049 km, 89.0° (Epoch: 6 March)

Date Brightness Start Highest point End Pass type
(mag) Time Alt. Az. Time Alt. Az. Time Alt. Az.
6 Mar ? 04:45:51 10° NE 04:50:36 22° E 04:55:22 10° SE visible
7 Mar ? 05:29:21 10° N 05:35:48 70° E 05:42:17 10° S visible
7 Mar ? 18:46:55 10° SW 18:51:20 19° W 18:55:45 10° NW visible
8 Mar ? 04:31:07 10° NE 04:35:22 18° E 04:39:38 10° SE visible
9 Mar ? 05:14:11 10° NNE 05:20:34 60° E 05:26:58 10° S visible
9 Mar ? 18:31:13 10° SW 18:36:06 22° W 18:41:00 10° NW visible
10 Mar ? 04:16:32 10° ENE 04:20:08 15° E 04:23:45 10° SE visible
11 Mar ? 04:59:04 10° NNE 05:05:20 51° E 05:11:37 10° SSE visible
12 Mar ? 04:02:12 10° ENE 04:04:54 13° E 04:07:36 10° ESE visible
12 Mar ? 05:44:18 10° NNW 05:50:32 51° W 05:56:50 10° SSW visible
13 Mar ? 04:43:59 10° NNE 04:50:05 44° E 04:56:14 10° SSE visible
14 Mar ? 03:48:38 10° E 03:49:40 10° E 03:50:43 10° ESE visible
14 Mar ? 05:28:57 10° N 05:35:18 59° W 05:41:43 10° SSW visible
15 Mar ? 04:28:56 10° NNE 04:34:51 38° E 04:40:48 10° SSE visible
